Wind_Speed
9 9 9 9 8 8 9 9 8 7 6 6 5 4 4 4 4 4 5 7 8 9 9 10 11 13 14 15 17 18 19 20 21 21 21 21 21 21 21 21 22 22 22 22 20 19 17 15 14 13 13 14 15 17 18 18 17 16 17 18 20 22 24 26 28 30 31 33 34 34 36 37 37 37 37 37 38 38 40 40 40 37 34 33 35
10 10 10 10 10 10 9 8 7 6 5 4 3 3 4 4 4 5 5 6 7 8 9 10 11 13 15 16 18 19 20 21 22 22 22 22 22 22 22 22 22 22 22 22 22 20 19 16 14 14 13 13 14 16 19 21 21 21 21 21 22 23 24 26 28 29 31 33 34 35 36 37 37 37 37 37 37 37 38 39 40 40 38 35 33
9 9 9 9 9 9 8 7 5 4 3 2 1 2 2 3 3 4 5 6 7 8 9 11 12 14 16 17 19 20 21 22 23 23 23 23 23 23 23 22 22 22 23 24 24 23 21 18 16 16 16 15 15 17 19 21 23 24 24 23 23 25 26 27 28 29 31 32 34 35 36 37 37 37 37 37 38 38 37 38 39 40 40 38 36
8 8 8 7 7 7 7 6 5 4 3 1 0 1 1 2 3 4 5 6 7 9 10 12 13 15 17 18 20 21 22 23 24 24 24 24 24 24 24 24 23 23 24 25 25 25 23 21 19 18 17 16 17 19 21 22 23 25 27 26 27 28 29 30 30 30 31 32 33 35 36 37 37 37 37 37 38 38 38 38 38 39 40 40 38
8 7 7 7 7 6 6 5 4 3 3 2 1 1 2 3 3 4 5 7 8 10 11 13 15 16 18 19 21 22 23 24 25 25 25 25 25 25 25 25 25 25 26 26 26 26 25 23 20 18 17 17 19 21 22 24 25 26 28 29 31 32 33 34 33 33 33 33 34 35 36 37 37 37 37 37 38 39 39 39 38 38 39 40 40
8 7 7 7 7 6 6 5 4 4 3 2 3 3 4 5 5 6 7 8 10 12 14 15 17 18 19 21 22 23 24 24 25 25 25 26 26 26 26 26 26 27 27 28 27 27 25 22 19 17 17 19 21 22 24 25 26 27 29 31 33 35 36 37 36 36 36 36 37 37 36 36 37 38 38 38 39 39 39 39 38 38 39 39 39
8 8 8 8 7 7 6 5 5 4 4 4 5 5 6 7 8 9 10 11 13 14 16 17 19 20 21 22 23 24 24 25 25 26 26 26 27 27 28 28 28 28 28 29 29 28 27 23 20 19 20 22 24 24 25 26 27 28 30 32 35 37 38 39 39 39 38 38 39 39 38 37 37 38 39 39 40 40 40 39 39 38 38 39 39
9 9 9 8 8 7 6 5 5 5 5 6 7 7 8 9 11 12 13 14 15 17 18 20 21 21 22 23 24 24 25 26 26 26 27 27 28 29 29 29 29 28 29 29 30 30 30 27 23 23 24 25 27 28 27 27 27 29 31 33 36 38 39 40 40 40 40 40 41 41 40 39 39 39 40 40 41 40 40 39 39 39 38 38 39
10 10 9 9 8 8 7 7 7 7 7 8 9 10 11 12 14 15 16 17 18 19 20 21 22 23 24 24 25 25 25 26 27 28 29 29 30 30 30 30 29 29 29 30 31 31 31 29 26 25 26 28 30 30 29 29 29 30 32 35 37 38 40 41 41 42 41 41 42 43 42 40 41 42 41 41 41 41 40 39 40 39 38 38 40
11 11 10 10 10 9 9 9 10 10 10 10 11 12 14 15 17 18 19 20 21 22 23 24 24 24 25 25 25 26 26 27 28 29 30 31 31 30 30 30 30 30 31 31 32 32 33 31 27 26 27 30 30 30 30 30 31 32 34 37 38 39 41 42 42 43 43 43 43 44 43 42 43 44 43 42 41 40 39 40 40 40 40 40 40
13 13 12 12 12 11 11 12 13 13 13 14 14 15 17 18 19 20 22 23 24 24 25 26 26 25 26 26 26 27 28 29 30 31 31 31 31 31 31 31 31 31 32 31 32 33 34 33 30 28 29 31 31 30 31 32 33 35 37 39 41 41 42 43 44 44 44 44 45 45 44 45 45 45 45 44 42 40 39 40 40 40 40 39 39
15 15 14 14 13 13 14 15 16 16 17 17 18 19 20 21 22 23 24 25 26 27 27 27 27 26 27 27 28 29 29 30 32 32 32 32 32 32 32 32 32 32 33 32 33 33 34 35 33 31 31 33 33 32 32 34 35 37 39 41 43 43 44 45 45 45 45 45 46 46 46 47 47 47 47 45 43 42 41 41 41 40 38 38 39
18 17 16 16 15 15 16 17 18 19 20 21 21 22 23 23 24 25 26 27 27 28 29 29 28 28 28 29 30 30 31 32 33 33 33 33 33 34 34 34 33 34 34 34 35 35 36 36 35 34 33 34 36 36 36 37 38 39 41 43 44 44 45 46 46 46 46 46 46 47 48 48 48 48 48 46 44 43 42 41 41 39 38 38 39
20 19 19 18 18 18 19 20 21 22 23 24 24 25 25 26 26 27 28 28 29 29 30 30 30 30 30 31 32 32 33 34 35 35 35 35 35 35 35 35 35 35 36 36 37 38 38 38 36 35 35 36 38 40 40 41 42 42 43 43 44 45 46 46 47 47 47 46 47 49 49 49 49 49 48 46 44 43 43 42 41 40 41 42 42
23 22 22 21 21 21 22 23 24 25 25 26 27 27 27 28 28 29 29 29 30 31 32 32 32 32 32 33 33 34 35 35 36 36 36 36 36 37 37 37 38 38 38 39 39 40 40 40 39 38 37 38 41 43 45 45 45 45 45 45 46 46 46 46 47 48 47 47 49 50 50 50 50 50 49 47 45 43 42 42 43 44 46 47 48
26 25 25 24 24 24 25 26 26 27 28 28 29 29 29 29 30 30 31 31 32 33 34 34 34 34 34 34 35 35 36 36 37 38 37 37 37 37 38 38 38 39 39 40 41 41 42 43 42 41 40 40 42 45 47 47 47 47 47 47 47 47 46 47 48 48 48 49 50 51 51 51 51 51 49 46 44 45 45 45 47 49 51 52 54
28 28 28 27 27 27 28 29 29 29 30 30 31 31 31 31 31 32 32 33 34 35 36 36 36 36 35 35 36 36 37 37 38 39 39 39 39 39 39 39 40 40 41 41 41 42 43 44 44 43 42 42 43 46 47 48 49 49 48 47 48 48 48 48 48 49 50 51 52 52 52 52 53 51 48 47 49 52 52 52 53 55 56 57 59
30 30 30 29 29 29 30 30 31 31 32 32 32 32 32 33 33 34 34 35 36 36 37 37 37 37 37 36 36 37 38 38 39 40 40 40 41 41 42 42 43 43 43 44 44 45 45 45 45 44 43 42 43 45 46 48 50 51 50 49 49 49 49 49 50 51 51 52 52 52 52 53 53 50 48 51 56 58 57 57 58 59 59 61 64
33 33 32 31 31 31 32 32 33 34 34 34 34 34 34 35 35 36 36 37 38 38 39 39 39 38 38 38 38 38 39 40 40 41 42 42 43 44 45 45 46 46 47 47 47 48 48 46 45 44 43 43 44 45 47 48 48 49 50 50 50 49 49 50 51 51 52 53 53 53 53 53 52 51 52 57 59 60 59 60 60 61 63 65 67
36 35 34 33 33 34 34 35 35 36 36 36 36 36 36 37 37 38 38 39 39 40 40 40 40 40 40 39 39 40 40 41 42 42 43 44 45 46 47 48 48 49 50 50 50 50 49 47 46 45 44 44 46 48 49 49 47 47 49 49 49 48 49 50 51 52 53 54 54 53 52 52 53 54 57 59 60 60 60 61 63 65 67 68 69
37 37 36 35 36 36 37 37 38 38 38 38 38 38 38 38 39 40 40 41 42 42 42 42 42 42 41 41 41 42 42 42 43 44 45 46 47 48 49 50 51 51 52 52 51 50 48 46 46 46 46 47 49 50 50 49 48 48 48 48 48 49 49 50 51 53 54 54 53 52 52 54 56 57 58 60 62 63 64 66 68 69 69 69 68
39 38 38 37 38 38 39 39 40 40 40 40 40 40 40 40 41 42 42 43 44 43 43 44 43 43 43 43 43 43 43 44 45 46 47 49 50 51 51 52 53 53 53 52 51 49 47 46 47 48 49 51 51 50 48 48 48 48 48 48 49 50 51 51 52 53 54 53 53 53 55 57 59 60 62 65 68 70 72 72 72 72 71 70 67
41 40 39 39 40 40 40 41 41 42 42 42 42 42 42 43 43 44 44 45 45 45 45 45 45 45 45 45 45 45 45 46 47 48 50 51 52 53 54 54 54 54 53 52 50 47 46 46 47 48 51 52 50 49 48 48 48 49 49 50 51 51 51 52 53 53 52 52 53 56 58 62 66 69 72 74 76 77 78 77 76 75 72 68 65
44 42 42 42 42 42 42 42 42 43 44 44 44 45 45 45 45 46 46 47 46 46 46 46 46 46 46 46 46 47 47 48 49 51 52 54 55 55 55 55 55 53 51 49 47 46 45 45 47 50 52 51 49 49 50 49 50 51 51 51 51 51 53 54 55 54 53 55 59 63 67 71 75 78 80 81 82 82 82 80 77 73 67 63 60
46 44 43 44 44 44 44 44 44 44 45 45 45 46 47 47 48 48 49 49 48 48 48 48 47 48 48 48 48 49 50 51 52 53 54 55 56 57 56 55 54 51 48 46 47 47 46 46 49 52 51 48 48 50 51 52 53 54 53 53 53 54 57 59 60 59 61 63 66 70 74 78 81 83 85 85 85 84 82 79 73 66 61 59 58
47 46 46 46 46 46 46 46 46 46 46 47 47 47 48 49 50 51 51 51 50 50 50 50 49 50 50 50 51 51 52 53 54 55 54 55 56 57 56 56 54 50 47 47 48 48 48 49 51 51 49 49 51 52 53 55 57 57 58 57 58 60 62 64 65 66 67 68 71 76 81 84 85 87 87 87 86 84 79 73 67 61 58 58 60
49 49 49 50 49 48 48 48 48 48 48 48 49 49 50 50 51 52 53 53 52 52 52 52 51 52 52 52 53 53 54 55 56 55 55 54 55 55 56 56 53 49 47 47 46 46 49 53 52 50 52 54 55 55 55 58 60 61 62 62 63 65 67 67 68 69 70 73 77 82 86 88 88 89 88 87 85 80 74 67 63 61 62 64 66
52 52 52 53 52 50 50 51 51 51 50 50 50 51 52 52 53 54 54 54 54 54 54 53 53 53 54 54 54 54 55 56 56 56 55 54 52 52 54 54 50 48 48 48 47 48 52 55 54 55 56 57 57 56 57 58 60 61 63 65 66 67 69 70 71 73 75 80 84 87 89 90 90 89 88 86 81 74 69 65 64 65 66 68 70
55 55 55 54 53 52 53 53 53 53 52 51 52 53 54 54 55 56 56 56 56 56 55 55 55 55 55 55 55 56 56 57 56 55 54 53 50 48 52 54 51 50 50 49 49 52 54 55 57 57 57 57 57 57 58 59 59 61 63 65 66 67 70 74 78 81 84 87 89 91 91 91 90 89 86 81 74 69 66 66 66 67 68 70 73
58 58 57 56 55 54 55 56 56 54 53 53 54 55 56 57 57 58 58 59 59 58 58 57 57 57 57 57 57 57 58 57 56 55 53 52 48 47 53 58 55 52 53 52 53 54 55 57 59 59 59 59 59 59 59 60 61 62 63 65 68 72 77 81 85 88 90 91 91 91 91 90 89 86 80 73 69 67 66 66 67 68 70 73 76
59 59 58 58 57 56 57 58 58 56 55 55 56 58 59 59 60 60 60 61 61 61 60 60 60 59 59 60 60 59 58 57 57 55 54 52 50 48 52 57 57 56 56 56 56 56 58 61 62 62 62 62 63 62 61 59 60 63 66 71 76 81 85 87 89 90 91 91 91 91 90 88 83 76 72 70 68 68 68 69 71 73 75 77 80
61 60 59 59 58 58 59 61 59 57 57 58 59 61 62 62 62 62 62 63 63 62 62 62 62 62 62 62 62 61 59 58 58 57 55 53 53 51 53 56 59 59 60 59 58 60 63 64 62 62 62 63 64 65 63 64 66 70 74 80 83 86 87 88 89 90 90 90 90 89 86 82 75 69 69 69 68 69 71 73 76 77 79 81 84
63 62 61 60 60 60 61 62 61 60 60 61 62 64 65 65 65 65 64 64 64 64 64 64 64 64 64 64 63 61 60 59 58 57 56 55 55 55 55 57 60 62 63 63 62 63 65 65 63 64 65 65 65 66 67 70 73 75 78 81 83 84 86 88 88 88 89 88 86 83 79 75 69 67 68 69 69 71 74 77 79 82 84 86 88
64 63 63 62 61 62 63 63 63 62 62 64 65 66 67 67 68 67 67 67 66 66 66 66 66 66 66 65 64 62 61 59 58 57 57 56 57 57 59 60 62 64 66 66 67 67 68 67 66 66 67 67 67 66 68 70 72 74 77 79 81 83 84 85 86 86 85 82 79 76 73 71 68 67 68 70 73 76 78 81 83 86 88 90 92
65 65 65 64 63 64 64 64 64 64 65 66 67 68 69 69 70 70 70 69 69 69 69 69 68 68 67 66 65 63 61 59 58 57 57 58 58 59 61 62 64 66 68 69 70 70 69 68 68 68 68 67 67 66 67 69 71 73 75 77 79 81 81 82 82 81 79 77 74 71 70 70 70 69 70 73 76 79 82 85 87 90 92 93 94
68 68 67 66 65 65 65 65 66 66 67 68 68 69 70 71 71 71 71 71 71 72 72 71 71 70 69 67 66 64 62 60 58 58 59 59 60 61 63 64 66 68 70 71 71 70 70 69 69 69 68 67 66 66 67 69 71 72 73 75 77 77 78 78 77 76 75 73 70 69 69 70 71 71 72 77 80 82 84 87 90 92 93 93 92
70 70 69 68 67 67 66 67 68 68 69 69 70 70 71 72 72 73 72 72 73 74 73 73 72 71 70 69 67 66 64 62 60 60 61 61 62 63 65 66 68 70 70 71 71 70 70 71 70 68 67 66 67 67 69 69 70 71 72 73 74 75 76 76 76 75 74 71 69 71 72 73 73 75 78 81 83 84 85 87 88 89 90 91 90
73 73 71 69 69 69 69 70 70 70 70 71 71 72 73 73 74 73 73 73 75 75 74 74 73 72 71 70 68 67 65 63 63 63 63 63 64 66 67 68 70 71 71 71 71 71 71 71 69 68 67 67 67 67 68 68 68 69 71 72 74 75 75 76 75 73 71 69 70 72 73 75 78 80 81 81 81 82 83 84 85 87 87 87 85
75 74 72 71 71 71 71 72 72 72 72 73 73 74 74 74 74 73 73 74 75 75 74 74 73 72 71 70 69 68 67 66 65 65 65 65 67 69 70 70 71 71 72 72 72 72 72 70 68 67 66 66 66 66 66 67 68 70 71 72 74 75 75 76 75 72 71 71 72 72 73 77 79 79 77 77 79 80 82 83 84 84 84 82 81
75 74 73 72 73 73 73 74 74 75 75 75 75 75 75 75 74 73 74 75 75 75 74 74 73 72 72 71 71 69 68 68 67 67 67 68 69 71 72 72 72 72 72 72 72 71 70 68 67 65 65 65 65 66 66 67 68 70 71 73 75 76 76 77 76 74 74 75 74 74 74 75 76 75 75 77 79 80 81 82 81 80 79 79 79
76 75 75 74 75 75 75 75 76 77 77 76 76 76 75 75 74 73 74 75 75 75 74 74 73 73 72 71 71 71 70 70 69 69 70 71 72 73 73 73 73 73 72 72 71 71 69 68 67 67 67 67 67 67 68 69 70 71 73 74 76 76 76 77 77 76 77 78 78 77 75 74 75 75 76 78 79 79 79 78 77 77 77 78 79
77 77 76 76 75 76 76 77 77 78 77 76 76 76 76 75 74 74 75 76 76 75 74 73 73 73 72 72 72 72 72 72 72 71 72 73 74 74 74 74 74 73 72 72 71 71 70 70 70 71 70 69 69 69 70 70 71 71 72 73 75 76 77 79 79 79 81 81 80 78 76 75 76 76 76 76 76 75 74 74 75 77 78 79 80
78 78 77 77 76 76 77 77 78 78 77 76 76 77 76 75 75 76 76 76 76 75 74 73 73 72 72 72 73 74 74 74 74 74 74 74 74 74 74 74 73 72 72 73 72 72 72 72 72 71 71 71 70 68 68 69 70 71 72 73 76 78 81 83 83 82 83 82 79 77 76 75 75 74 73 73 72 72 73 75 76 78 79 80 81
79 78 78 77 77 77 77 77 77 77 77 76 77 77 77 76 76 77 76 75 75 75 74 73 73 73 73 74 75 76 76 76 76 76 75 75 75 74 73 73 73 74 74 74 74 74 74 73 71 70 70 70 67 66 68 71 72 72 74 76 78 81 83 84 83 83 83 81 79 77 75 74 72 71 70 70 72 73 75 76 78 80 81 81 81
78 78 78 78 78 78 78 77 77 77 76 76 76 76 77 77 77 76 75 75 74 74 73 73 73 74 74 75 76 77 77 77 77 77 77 76 75 74 73 73 75 76 76 76 75 75 75 73 70 69 68 68 67 69 72 72 72 74 76 79 82 83 83 82 82 82 81 79 77 75 73 71 70 70 71 72 74 75 77 78 81 82 83 83 82
78 78 78 78 78 78 77 77 76 76 76 75 74 75 76 77 76 76 75 75 74 74 74 75 75 75 76 76 77 78 78 78 77 77 77 76 75 74 74 76 77 77 77 76 76 76 75 74 72 69 67 67 69 71 70 70 72 77 81 83 85 85 84 84 84 82 79 75 73 71 70 70 71 71 73 74 76 78 80 82 83 84 84 83 81
77 77 77 76 76 76 75 75 74 74 73 73 74 76 77 77 77 76 76 75 76 76 76 76 76 76 76 77 78 79 78 77 77 77 77 76 75 76 77 78 77 76 76 76 76 76 76 75 72 68 65 67 69 69 67 71 77 81 84 86 86 85 85 85 83 79 75 72 70 70 71 71 73 74 75 77 79 81 83 84 85 86 84 81 78
76 76 76 74 73 73 73 73 73 73 72 73 75 77 77 77 77 76 76 76 76 76 76 75 76 77 78 79 79 78 77 77 77 77 77 77 78 78 78 78 77 76 77 76 75 76 76 74 71 68 67 69 71 69 71 77 82 84 86 87 87 86 85 83 79 75 72 70 70 72 73 74 75 77 79 81 83 84 86 87 87 85 82 78 76
76 76 75 74 73 73 73 73 73 73 73 74 75 76 77 77 77 76 76 76 76 77 77 78 78 79 79 79 79 78 78 78 78 78 78 79 79 79 78 78 77 78 78 76 75 76 76 75 73 71 70 70 71 73 77 81 85 87 88 87 86 85 83 79 76 73 72 71 72 74 75 77 79 81 83 84 86 87 88 87 85 82 79 76 75
77 76 76 75 75 74 74 73 73 73 73 74 75 76 77 77 77 77 77 77 78 79 79 80 80 80 80 79 79 79 79 78 78 78 79 80 79 79 78 78 78 79 79 78 77 77 77 76 74 73 72 72 75 78 82 85 87 88 87 86 85 83 80 76 74 73 73 74 75 76 78 80 82 84 86 87 88 89 88 86 83 80 78 75 73
77 76 76 76 76 75 75 74 74 74 74 75 75 75 76 78 78 78 78 79 80 80 80 80 80 80 80 80 80 79 78 77 77 78 80 80 80 79 79 80 80 80 79 79 78 78 78 77 76 77 78 79 82 84 86 87 87 87 86 85 83 79 76 74 73 74 76 77 78 79 81 83 85 86 88 89 89 87 85 82 80 78 76 74 71
Wind_Direction
154 153 152 150 147 144 142 140 136 130 124 115 101 80 65 58 51 45 40 37 34 30 25 20 15 10 5 2 358 355 354 353 352 352 352 352 353 354 354 354 354 354 355 354 351 344 339 340 349 360 8 13 16 16 14 11 9 7 8 7 7 6 5 4 3 3 4 5 5 4 4 4 3 3 3 3 4 5 7 9 10 12 18 26 31
146 146 146 142 139 138 139 141 140 137 135 127 100 75 67 63 54 44 35 28 23 17 13 8 4 1 357 354 351 349 348 347 347 346 347 347 348 349 349 348 348 348 347 348 347 341 333 329 332 337 342 348 354 359 0 0 0 0 0 0 0 359 359 358 356 357 358 358 359 359 359 359 359 359 358 357 358 359 1 3 6 7 8 11 19
144 142 142 141 139 137 138 141 143 144 147 147 110 77 65 50 34 22 15 11 8 5 0 357 354 352 350 348 345 343 342 342 342 342 342 343 344 344 345 344 343 342 341 342 343 340 332 324 322 326 328 329 331 334 337 341 344 346 349 350 352 353 353 352 351 352 353 352 352 353 353 354 354 354 354 353 352 353 355 357 1 4 4 4 6
153 150 151 151 151 149 148 149 152 157 166 174 142 56 28 4 358 354 354 354 353 352 349 347 345 344 343 341 340 338 338 337 338 338 338 338 339 340 340 340 338 337 337 338 339 339 334 325 319 322 325 325 323 322 322 324 328 333 338 340 342 344 345 346 346 347 348 348 347 347 347 348 348 349 349 349 348 347 349 352 355 358 1 2 0
167 164 164 165 167 167 168 168 170 174 183 201 228 275 299 308 321 333 338 341 340 340 339 338 338 338 337 336 335 334 334 334 334 334 334 335 335 336 336 335 335 334 334 335 336 337 335 328 321 320 324 326 324 322 319 318 319 322 327 331 334 337 339 340 341 342 343 344 344 342 342 342 343 343 343 344 344 343 344 346 350 353 355 358 359
184 183 184 187 191 193 192 188 186 192 209 231 257 276 290 299 311 321 326 329 330 330 331 331 331 332 332 332 331 331 331 331 331 331 331 332 332 332 332 332 332 332 332 332 332 333 332 328 323 317 317 321 324 325 323 318 316 316 320 324 329 332 334 335 337 337 337 339 340 339 338 337 337 338 339 339 339 339 340 341 343 347 350 353 355
204 205 207 209 210 210 208 206 206 216 234 255 271 282 293 303 310 316 320 321 323 324 325 326 327 328 328 328 327 327 328 328 329 328 328 329 329 330 330 329 330 330 330 329 328 328 327 323 319 317 317 319 322 325 324 319 316 315 316 320 324 327 330 331 332 332 333 334 335 336 334 333 334 334 335 336 337 336 335 336 338 340 345 348 350
219 220 221 221 220 220 223 228 234 242 255 269 279 288 296 303 308 312 316 317 318 319 320 321 323 324 325 325 325 325 326 327 327 326 326 327 327 328 328 327 327 328 328 327 326 326 326 321 314 313 316 318 320 322 323 320 317 315 315 317 319 321 324 326 327 328 329 330 331 332 331 330 331 332 332 333 334 334 332 332 334 336 339 344 346
223 226 228 230 234 238 244 252 258 263 270 278 284 291 297 302 306 310 312 313 314 316 317 318 319 321 322 322 322 323 325 325 325 325 325 326 326 326 325 324 324 324 325 325 325 325 325 322 314 310 313 317 318 318 319 317 314 313 314 314 315 316 318 320 321 323 324 326 327 328 328 327 328 330 331 331 331 331 331 329 330 333 336 338 340
223 229 236 242 247 254 260 265 269 274 278 282 287 293 297 301 304 307 309 310 312 314 315 316 317 318 320 320 320 322 323 324 324 325 326 326 325 324 323 322 322 322 323 323 325 325 324 321 315 310 311 316 318 316 314 312 308 307 309 311 311 311 313 316 317 319 321 322 323 324 326 326 327 329 331 331 330 328 327 327 329 331 333 335 335
227 233 240 247 254 261 267 271 275 279 283 286 289 293 297 300 303 305 306 308 310 312 313 314 315 317 319 319 319 320 321 323 324 326 326 325 323 322 323 323 323 322 322 323 324 325 324 321 314 308 308 312 316 315 314 311 307 304 304 306 308 309 310 312 315 317 319 320 320 322 324 325 325 328 330 330 329 327 325 325 327 329 330 331 333
236 238 242 248 255 262 267 271 276 280 283 286 289 292 295 298 300 303 305 307 309 310 311 312 314 316 317 317 317 318 320 323 324 325 324 323 323 323 324 324 324 323 322 322 323 324 325 322 315 307 305 307 310 312 312 312 309 304 303 304 306 307 308 310 314 316 318 318 318 319 322 323 324 326 329 329 327 325 324 324 325 327 327 328 329
249 249 250 252 257 261 265 270 274 278 282 285 288 291 294 296 298 301 303 305 307 308 309 311 313 314 315 315 316 318 320 322 323 323 323 323 323 323 324 324 324 323 322 321 321 323 325 324 318 309 305 305 306 309 311 313 309 305 303 304 306 306 306 308 311 314 316 315 316 318 320 321 323 325 326 326 325 323 322 323 324 325 325 325 324
256 257 257 258 260 261 265 269 273 277 281 284 287 290 293 295 297 299 301 303 305 307 308 310 311 312 313 315 316 319 320 320 321 322 322 323 323 323 323 323 322 321 321 320 320 321 322 323 320 314 308 306 306 308 311 313 310 306 304 304 304 304 304 306 309 312 313 313 314 316 318 320 321 322 323 323 321 320 320 320 321 322 322 322 320
258 260 261 262 262 264 266 269 273 276 280 283 287 290 292 294 295 297 299 301 304 306 307 308 310 312 313 315 316 318 319 319 319 320 321 323 323 323 322 322 321 320 320 319 319 319 319 319 319 317 311 307 306 307 310 311 310 307 305 303 302 302 303 305 308 310 311 312 313 314 316 318 318 319 320 319 319 318 318 318 319 320 319 317 314
260 262 264 265 266 268 270 272 274 277 280 283 286 289 290 292 294 296 298 300 303 304 306 307 309 312 313 315 316 317 317 317 317 319 320 321 321 320 320 320 319 318 318 318 317 316 316 317 317 315 312 309 307 307 308 310 309 307 305 303 301 301 303 304 306 307 309 310 312 314 315 315 317 317 316 315 317 318 318 318 318 316 314 311 310
261 262 264 267 269 270 272 274 276 278 280 283 286 288 290 292 294 296 297 299 301 303 305 307 309 311 312 313 314 315 315 315 316 317 318 319 319 318 317 316 315 315 315 314 314 313 313 313 313 312 310 310 309 307 307 307 306 306 305 301 300 301 303 304 305 305 307 310 312 313 313 314 315 315 313 313 316 318 317 315 312 310 309 308 308
260 261 264 266 269 271 273 275 277 278 280 282 284 287 289 292 293 295 297 298 300 302 304 307 308 310 311 312 312 313 313 314 315 316 316 316 316 315 314 314 313 314 313 313 312 312 311 311 310 309 308 309 310 309 307 305 303 302 302 300 300 301 303 304 304 304 307 310 311 311 311 313 313 312 310 311 313 313 311 309 307 306 306 306 308
260 262 265 266 269 271 272 274 276 277 279 280 283 286 288 290 293 294 296 297 299 302 304 306 307 308 309 310 310 311 311 312 313 314 314 314 313 312 312 313 313 313 313 313 312 311 310 309 308 306 306 306 309 310 308 305 301 298 297 298 299 300 301 302 303 306 308 310 309 309 310 310 309 308 307 308 309 308 307 306 304 304 305 306 309
260 262 264 266 269 270 272 273 275 277 278 280 282 284 286 289 291 293 295 297 299 301 303 304 305 305 307 308 308 309 309 311 312 312 312 312 311 310 311 312 312 313 313 312 312 310 309 308 307 306 304 305 309 311 308 306 302 297 295 296 297 298 299 301 304 307 308 308 307 306 306 305 305 305 305 306 306 306 306 306 305 305 306 308 309
258 260 262 265 268 270 272 274 275 276 278 279 281 283 286 288 290 292 294 296 298 300 301 302 302 304 305 306 306 307 308 309 310 310 310 310 309 310 310 311 311 312 312 312 311 309 309 310 308 306 305 306 309 310 308 305 300 297 295 294 294 296 299 302 304 306 307 305 304 302 301 300 302 303 304 304 305 306 307 308 308 309 309 310 312
257 258 260 263 265 268 270 272 274 276 278 280 282 284 286 288 290 292 294 295 297 298 299 300 300 301 303 304 304 305 307 308 308 309 309 309 309 310 310 311 311 311 311 311 310 310 310 310 307 305 305 306 308 307 306 302 297 295 294 293 293 295 298 301 302 303 303 301 299 298 298 299 301 303 305 306 307 309 310 311 311 312 312 312 313
258 259 260 261 263 265 267 270 273 275 278 280 282 284 286 287 289 291 292 293 294 295 296 297 298 299 300 302 303 304 306 306 307 308 308 308 309 310 311 311 310 311 311 310 310 309 308 307 304 303 304 304 305 305 304 299 294 292 292 292 293 295 297 298 299 300 300 297 295 296 298 301 303 305 307 309 310 312 313 313 313 313 313 313 313
259 260 261 262 263 265 267 269 271 274 276 279 281 284 285 287 288 289 290 291 292 293 294 295 296 297 298 300 302 304 305 306 307 307 308 309 310 310 311 310 310 311 310 309 309 308 307 306 302 301 303 303 303 303 301 296 292 290 290 290 290 291 293 294 295 296 295 294 295 297 299 301 304 305 307 309 311 312 313 313 314 313 313 313 312
260 261 262 263 264 265 267 268 270 273 275 278 280 283 285 286 287 288 289 290 291 292 293 294 295 296 298 300 302 304 305 306 306 306 307 309 310 310 311 310 310 310 308 306 308 307 306 304 301 302 303 301 300 300 297 294 291 289 287 286 286 287 289 291 291 290 290 292 294 296 298 301 303 305 308 309 311 313 314 314 313 313 312 312 311
261 262 262 263 264 265 267 269 271 273 276 278 280 282 284 285 286 287 288 289 291 292 292 293 295 296 298 300 302 303 304 304 304 305 307 309 309 310 311 310 309 309 306 304 305 304 302 302 302 303 302 299 297 297 295 292 290 287 286 284 284 286 289 290 290 289 289 290 292 295 299 302 304 307 309 310 312 313 313 313 312 311 311 310 309
261 262 263 264 265 267 268 270 272 274 276 279 281 282 283 284 285 285 286 288 289 290 291 292 294 295 297 298 300 300 301 302 303 305 307 308 308 310 310 309 308 308 306 303 302 300 300 302 302 300 299 298 295 294 294 293 290 286 285 284 284 287 289 289 289 289 289 290 293 296 300 303 306 308 309 311 312 312 311 311 309 309 308 308 309
262 263 264 265 267 269 270 272 273 275 277 279 280 281 282 282 283 283 284 285 286 287 289 291 292 293 294 296 297 298 299 301 302 304 306 306 308 310 308 303 302 303 301 300 300 301 301 301 300 297 295 294 293 292 295 295 290 285 283 282 283 284 286 287 288 289 291 293 296 299 302 304 307 309 310 311 311 310 309 308 307 307 308 309 309
261 263 264 266 268 270 271 272 273 274 276 278 278 279 280 281 281 282 283 284 285 286 288 289 290 291 292 293 295 297 299 300 302 303 304 304 306 307 301 295 296 299 300 300 301 302 302 301 298 295 293 292 293 294 295 294 289 283 280 280 281 282 284 287 290 293 295 298 300 302 304 306 308 309 310 309 308 308 307 307 307 307 307 306 305
260 261 263 265 267 269 270 271 272 273 275 276 277 278 278 279 280 281 282 283 284 285 287 288 289 290 291 293 295 297 298 299 300 301 301 301 302 301 296 295 298 301 301 302 302 302 302 301 299 297 295 294 293 293 293 291 286 281 279 279 280 282 286 289 292 295 297 299 302 304 306 307 309 309 308 306 306 305 305 305 305 304 303 302 302
258 260 262 264 266 267 268 269 271 272 274 275 276 277 277 278 279 280 281 282 283 285 286 288 289 290 292 293 295 296 297 299 300 300 300 299 298 296 294 296 299 301 301 303 304 303 302 302 300 298 297 295 292 291 289 286 282 279 278 279 283 286 289 291 294 296 298 300 302 304 305 307 308 307 304 302 302 302 302 302 302 301 300 300 301
257 258 260 262 264 265 267 269 270 272 273 274 275 276 276 277 278 279 280 281 283 284 286 287 289 290 292 293 294 296 298 299 300 299 298 297 296 295 294 295 298 300 301 303 303 302 301 301 300 298 297 295 292 289 285 281 280 280 281 284 288 290 292 294 296 297 299 301 302 303 305 306 306 302 300 300 300 300 301 301 300 300 300 302 304
256 258 260 261 263 264 266 268 270 271 272 273 274 274 275 276 277 278 279 281 282 284 285 287 288 289 290 292 294 296 298 299 299 298 297 296 296 296 296 296 298 300 301 302 303 302 301 301 299 297 297 295 293 289 286 285 285 286 287 289 291 293 294 296 297 298 300 301 302 303 305 304 302 300 299 299 298 299 299 299 299 300 302 304 305
256 258 259 260 262 263 265 267 269 270 271 272 273 274 275 277 278 279 280 281 282 284 285 286 287 289 291 293 295 296 297 298 298 297 297 296 297 297 297 298 299 301 302 303 304 303 302 302 300 299 298 296 294 291 289 288 288 289 290 291 292 293 295 296 297 299 300 301 302 302 302 301 299 298 298 298 298 298 299 299 300 302 303 304 305
256 257 258 260 261 262 264 266 268 269 270 271 273 275 276 277 279 280 281 282 283 284 285 286 288 290 291 293 295 296 297 297 297 296 296 296 297 298 298 299 301 302 303 303 303 303 303 302 301 300 298 296 294 292 290 289 289 290 291 291 292 293 294 296 298 299 300 301 301 301 299 297 296 296 296 297 298 299 299 299 300 302 303 303 304
255 256 257 259 260 261 263 265 267 268 270 271 273 275 276 278 279 280 282 283 285 286 287 288 289 291 293 294 295 296 296 296 296 295 295 296 297 298 299 301 302 302 302 302 302 302 302 301 301 299 298 296 294 293 292 291 291 291 291 291 291 292 294 296 297 298 298 299 299 298 296 295 295 295 296 297 298 299 299 299 300 301 302 303 304
253 255 256 258 259 261 263 264 265 267 269 270 272 274 275 277 278 279 281 283 285 286 288 289 291 292 294 295 296 296 296 296 295 295 296 297 298 299 300 300 301 300 301 301 301 301 301 301 300 299 297 296 295 294 293 292 292 292 291 291 291 292 294 296 297 297 298 298 297 296 294 293 294 295 296 298 298 298 299 299 300 301 302 303 304
252 254 255 257 259 260 262 263 265 266 268 269 271 272 274 275 277 279 281 283 284 286 288 289 291 292 293 294 295 295 295 295 295 296 297 298 299 299 299 299 300 300 300 300 300 301 301 300 300 299 298 297 296 295 294 293 293 292 292 292 292 293 295 297 298 298 298 298 298 297 295 294 296 297 298 298 298 298 299 299 300 301 302 303 303
251 253 254 256 258 260 261 263 264 266 267 268 270 271 272 274 277 279 281 282 283 285 287 288 290 291 292 293 293 293 293 294 295 296 297 298 298 298 298 299 300 300 300 300 300 301 301 300 300 299 298 297 295 294 293 293 293 293 293 294 294 295 298 300 299 300 300 299 298 297 296 295 297 298 298 298 299 299 300 300 301 302 302 302 303
250 252 254 256 257 259 261 262 264 265 266 268 269 271 272 274 276 278 280 281 283 284 286 287 289 290 291 291 292 292 292 293 294 296 296 297 297 298 299 300 300 300 300 300 300 300 299 299 298 298 297 296 294 294 294 295 295 296 297 297 298 299 300 300 300 301 302 301 300 300 299 298 298 298 299 299 300 300 301 301 301 302 302 303 304
250 252 253 255 257 259 260 262 264 265 266 268 269 271 273 274 276 278 279 280 282 283 285 286 287 289 289 290 291 291 292 292 294 295 296 297 298 299 299 300 300 300 300 300 299 299 298 296 296 295 296 296 296 296 297 297 297 298 299 299 299 300 300 301 302 303 303 303 303 303 302 300 300 300 300 300 300 301 301 301 301 301 302 304 305
250 252 253 255 256 258 260 262 263 265 267 268 270 272 273 274 276 277 278 279 281 282 283 285 286 287 288 289 289 290 291 292 294 295 296 297 298 299 299 299 300 300 299 299 298 297 296 295 296 297 297 297 297 297 297 297 298 299 299 299 301 301 302 303 304 305 305 305 305 304 303 302 301 301 300 300 300 300 301 301 301 303 304 305 307
252 253 254 256 257 259 260 262 264 266 267 269 271 272 273 274 275 276 277 278 280 281 282 283 284 285 286 287 288 289 291 292 294 296 297 298 298 299 299 299 299 299 298 297 296 296 295 296 298 299 298 298 297 296 296 297 298 298 300 302 303 303 304 304 305 305 306 306 305 304 303 302 301 301 301 300 300 301 301 302 303 305 306 307 307
254 255 256 257 258 259 261 262 264 266 268 270 271 273 273 274 275 275 276 277 279 280 281 282 283 284 285 286 287 289 291 293 294 296 297 297 297 297 297 297 297 297 297 296 296 296 296 298 299 299 299 298 296 295 297 298 299 300 302 304 304 304 304 304 305 306 306 306 305 304 303 303 302 302 301 301 301 302 303 304 305 306 307 307 307
255 256 257 258 259 260 261 263 265 267 268 270 271 272 273 273 274 275 276 277 278 279 280 281 282 283 284 286 288 289 291 293 295 296 296 296 296 296 296 296 296 296 296 296 296 297 298 299 299 299 298 296 295 296 298 300 300 301 303 303 303 304 305 305 306 306 306 305 304 304 304 303 303 303 303 303 303 304 305 306 307 307 307 308 308
255 256 258 259 260 262 263 265 266 268 269 270 270 271 272 273 274 275 276 277 278 279 280 281 282 284 285 287 289 290 292 293 294 294 295 295 295 295 295 295 296 296 296 297 297 298 298 299 299 298 295 294 294 297 298 299 300 301 302 302 303 305 305 306 306 306 305 304 304 304 304 304 304 304 304 304 305 306 307 307 308 308 308 308 308
255 257 258 260 261 263 264 266 267 268 269 269 269 270 271 273 274 275 276 277 278 279 280 282 283 284 286 287 289 290 292 292 293 293 294 293 293 294 295 295 296 296 296 297 297 298 298 298 298 297 294 294 296 297 296 296 299 300 302 303 304 305 306 306 306 305 304 304 304 304 305 305 305 305 306 306 307 308 308 308 308 308 308 308 308
255 256 258 259 261 263 264 265 266 267 267 268 270 271 273 274 274 275 276 277 279 280 281 282 283 284 286 288 289 290 291 291 292 292 292 292 292 293 294 294 295 295 296 297 297 297 297 296 296 295 295 295 296 295 295 296 299 301 303 304 305 305 305 305 305 304 304 304 305 305 306 306 307 307 307 308 308 309 308 308 308 308 308 308 308
254 256 257 258 259 261 263 264 265 267 268 269 271 272 273 273 274 275 276 277 279 280 281 282 283 285 286 288 289 289 290 291 291 291 290 290 291 292 293 294 294 295 296 296 295 295 295 295 294 294 294 294 294 295 296 298 301 302 304 304 305 305 305 304 304 304 304 305 305 306 307 308 308 308 309 309 309 308 308 308 308 307 307 307 308
254 255 257 258 259 260 262 263 265 266 267 269 270 271 271 272 273 274 276 277 278 279 281 282 284 285 286 287 288 288 289 290 290 289 289 290 291 293 294 294 295 295 296 296 295 296 296 296 296 295 294 294 295 297 299 301 302 303 304 304 304 304 304 304 304 304 305 306 307 307 308 308 309 309 309 308 308 308 307 307 307 307 307 307 308
254 255 257 258 259 260 261 263 264 266 267 268 269 269 269 271 273 275 276 277 278 279 280 282 283 284 285 286 288 289 289 289 289 289 291 292 293 294 294 295 295 296 296 296 296 296 297 297 296 295 295 295 297 299 300 302 303 303 303 304 303 303 303 303 304 304 305 307 307 308 309 309 308 308 308 307 307 306 305 305 305 306 307 307 308
Height
10989 10989 10989 10990 10990 10990 10991 10991 10992 10992 10993 10993 10993 10993 10993 10993 10993 10993 10992 10992 10992 10991 10991 10990 10989 10988 10987 10986 10985 10985 10984 10983 10982 10981 10980 10978 10977 10976 10974 10973 10972 10970 10968 10967 10965 10964 10963 10962 10960 10959 10957 10956 10954 10953 10951 10950 10948 10947 10945 10943 10941 10939 10937 10935 10934 10932 10931 10929 10928 10926 10925 10923 10921 10920 10918 10916 10915 10913 10912 10910 10909 10906 10904 10901 10897
10989 10989 10990 10990 10990 10990 10990 10991 10991 10992 10992 10993 10993 10993 10993 10993 10993 10992 10992 10992 10991 10991 10990 10989 10989 10988 10987 10986 10985 10984 10983 10982 10981 10980 10979 10977 10976 10975 10973 10972 10970 10969 10967 10966 10965 10963 10962 10960 10959 10958 10956 10955 10953 10951 10950 10948 10947 10945 10944 10942 10940 10939 10937 10935 10933 10931 10929 10927 10926 10924 10923 10921 10919 10918 10916 10914 10912 10911 10909 10908 10906 10904 10903 10900 10897
10989 10989 10989 10990 10990 10990 10990 10990 10991 10991 10992 10992 10992 10992 10992 10992 10992 10992 10992 10991 10990 10990 10989 10989 10988 10987 10986 10985 10984 10983 10982 10981 10980 10978 10977 10976 10975 10974 10972 10971 10969 10968 10967 10965 10964 10962 10961 10959 10957 10956 10955 10953 10951 10950 10948 10946 10945 10943 10942 10940 10939 10937 10936 10934 10932 10929 10927 10925 10923 10922 10921 10919 10918 10916 10914 10913 10911 10909 10908 10906 10904 10902 10900 10898 10896
10989 10989 10989 10989 10989 10989 10989 10990 10990 10990 10991 10991 10992 10992 10992 10992 10991 10991 10991 10990 10989 10989 10988 10988 10987 10986 10985 10984 10983 10982 10981 10980 10978 10977 10976 10974 10973 10972 10971 10969 10968 10967 10965 10964 10962 10961 10959 10957 10955 10954 10953 10951 10949 10948 10946 10944 10943 10941 10940 10938 10937 10935 10934 10932 10930 10928 10926 10924 10922 10920 10918 10917 10915 10914 10912 10911 10909 10907 10905 10903 10901 10900 10898 10896 10894
10988 10988 10989 10989 10989 10989 10989 10989 10989 10990 10990 10991 10991 10991 10991 10991 10991 10990 10990 10989 10988 10988 10987 10986 10986 10985 10984 10983 10982 10981 10980 10978 10977 10976 10974 10973 10971 10970 10969 10968 10966 10965 10963 10962 10960 10959 10957 10955 10953 10952 10950 10949 10947 10945 10944 10942 10940 10939 10937 10936 10934 10932 10930 10929 10927 10925 10923 10922 10920 10918 10916 10914 10913 10911 10909 10908 10906 10904 10903 10901 10899 10897 10895 10893 10892
10988 10988 10988 10988 10988 10988 10988 10988 10989 10989 10990 10990 10991 10991 10991 10990 10990 10989 10989 10988 10987 10987 10986 10985 10984 10983 10983 10982 10981 10980 10979 10977 10976 10974 10973 10971 10970 10969 10967 10966 10964 10963 10961 10960 10958 10957 10955 10953 10952 10950 10948 10946 10945 10943 10942 10940 10938 10936 10935 10933 10931 10929 10927 10925 10923 10922 10920 10919 10917 10915 10913 10911 10909 10908 10906 10905 10903 10901 10900 10898 10896 10894 10893 10891 10889
10987 10987 10987 10987 10987 10987 10988 10988 10988 10988 10989 10989 10990 10990 10990 10989 10989 10988 10988 10987 10986 10985 10984 10983 10982 10982 10981 10980 10979 10978 10977 10976 10974 10973 10971 10970 10968 10967 10966 10964 10963 10961 10959 10958 10956 10955 10953 10951 10949 10948 10946 10944 10942 10941 10939 10937 10935 10934 10932 10930 10928 10925 10923 10921 10920 10918 10917 10915 10913 10912 10910 10908 10906 10904 10903 10902 10900 10898 10896 10895 10893 10891 10890 10888 10886
10985 10985 10985 10986 10986 10986 10986 10987 10987 10987 10988 10988 10988 10988 10988 10988 10987 10987 10986 10985 10985 10984 10983 10982 10981 10980 10979 10978 10977 10976 10975 10974 10972 10971 10969 10968 10966 10965 10963 10962 10960 10959 10957 10955 10953 10951 10950 10948 10946 10945 10943 10941 10939 10937 10936 10934 10932 10930 10928 10926 10924 10922 10920 10918 10916 10915 10913 10911 10909 10908 10906 10904 10903 10901 10899 10898 10897 10895 10893 10891 10890 10888 10887 10884 10883
10983 10984 10984 10984 10984 10984 10984 10985 10985 10985 10986 10986 10986 10986 10986 10986 10985 10985 10984 10984 10983 10982 10981 10980 10979 10978 10977 10976 10975 10974 10973 10971 10970 10969 10967 10966 10964 10962 10961 10959 10957 10956 10954 10952 10950 10948 10946 10944 10943 10941 10940 10938 10936 10934 10932 10930 10928 10926 10924 10922 10920 10918 10917 10915 10913 10911 10909 10907 10906 10904 10902 10901 10899 10898 10896 10894 10892 10891 10889 10888 10886 10885 10883 10881 10880
10981 10981 10982 10982 10982 10982 10982 10982 10983 10983 10983 10983 10983 10984 10983 10983 10983 10982 10982 10981 10980 10980 10978 10977 10977 10976 10975 10974 10972 10971 10970 10969 10968 10966 10965 10963 10961 10960 10958 10956 10954 10952 10950 10948 10946 10944 10942 10940 10939 10938 10936 10935 10933 10931 10929 10927 10925 10923 10921 10919 10917 10915 10913 10911 10909 10907 10905 10904 10902 10900 10899 10897 10896 10894 10892 10890 10889 10887 10885 10883 10882 10880 10878 10877 10875
10979 10979 10979 10979 10979 10980 10980 10980 10980 10980 10981 10981 10981 10981 10981 10981 10980 10980 10979 10979 10978 10977 10976 10975 10974 10973 10972 10971 10970 10969 10968 10966 10965 10964 10962 10960 10958 10957 10955 10953 10951 10949 10947 10945 10943 10941 10939 10936 10935 10933 10932 10931 10929 10928 10926 10924 10922 10920 10918 10915 10913 10911 10909 10907 10905 10903 10901 10899 10898 10896 10894 10892 10891 10889 10887 10885 10884 10882 10880 10878 10876 10875 10873 10872 10870
10976 10977 10977 10977 10977 10977 10978 10978 10978 10978 10978 10979 10979 10979 10978 10978 10978 10977 10976 10976 10975 10974 10973 10973 10972 10971 10970 10969 10968 10966 10965 10964 10962 10960 10959 10957 10955 10953 10952 10950 10948 10946 10944 10942 10940 10938 10936 10933 10931 10929 10927 10926 10925 10923 10922 10920 10918 10916 10914 10911 10909 10907 10904 10902 10900 10898 10897 10895 10893 10891 10889 10887 10885 10883 10881 10879 10877 10875 10874 10872 10871 10870 10868 10867 10865
10973 10974 10974 10974 10975 10975 10975 10976 10976 10976 10976 10976 10976 10976 10976 10976 10975 10974 10974 10973 10972 10971 10971 10970 10969 10968 10967 10966 10965 10963 10962 10961 10959 10957 10955 10953 10952 10950 10948 10946 10944 10942 10940 10938 10936 10934 10932 10930 10928 10925 10923 10922 10920 10919 10918 10916 10914 10912 10910 10907 10905 10902 10900 10897 10895 10893 10892 10890 10888 10885 10883 10880 10878 10876 10874 10872 10870 10868 10866 10865 10864 10863 10862 10861 10860
10970 10971 10971 10972 10972 10972 10973 10973 10973 10974 10974 10974 10974 10974 10973 10973 10972 10972 10971 10970 10969 10968 10968 10967 10966 10966 10965 10963 10962 10960 10959 10957 10955 10953 10951 10949 10948 10946 10944 10942 10940 10937 10935 10934 10932 10930 10928 10926 10924 10922 10920 10918 10916 10914 10913 10912 10910 10907 10905 10903 10900 10897 10895 10893 10890 10888 10886 10884 10882 10879 10877 10874 10872 10870 10867 10865 10863 10861 10859 10858 10856 10855 10855 10854 10854
10967 10968 10968 10969 10969 10969 10970 10970 10970 10971 10971 10971 10971 10971 10970 10970 10969 10969 10968 10967 10966 10966 10965 10964 10963 10962 10961 10960 10958 10957 10955 10953 10951 10950 10948 10946 10944 10942 10940 10937 10935 10933 10931 10929 10928 10926 10924 10922 10920 10918 10916 10914 10911 10909 10908 10907 10905 10902 10900 10898 10896 10893 10890 10888 10886 10883 10881 10878 10876 10874 10871 10868 10865 10863 10861 10858 10856 10854 10852 10850 10849 10848 10847 10847 10847
10964 10964 10965 10965 10966 10966 10966 10966 10967 10967 10967 10967 10967 10967 10967 10967 10966 10965 10965 10964 10963 10962 10961 10961 10960 10959 10958 10956 10955 10953 10952 10950 10948 10946 10945 10943 10941 10939 10937 10934 10932 10930 10928 10926 10924 10922 10919 10917 10916 10914 10912 10910 10907 10904 10902 10901 10899 10897 10895 10893 10891 10888 10886 10883 10881 10878 10875 10873 10871 10868 10866 10863 10860 10857 10855 10852 10850 10847 10846 10844 10843 10842 10840 10839 10839
10961 10961 10961 10962 10962 10962 10962 10962 10963 10963 10963 10963 10963 10963 10963 10963 10963 10962 10961 10960 10959 10959 10958 10957 10956 10955 10954 10952 10951 10950 10948 10946 10944 10943 10941 10939 10937 10936 10934 10932 10929 10927 10926 10923 10921 10919 10916 10914 10912 10910 10908 10906 10903 10900 10898 10895 10893 10891 10889 10887 10885 10883 10880 10878 10875 10873 10870 10868 10866 10864 10861 10858 10854 10852 10850 10847 10845 10843 10841 10839 10838 10836 10834 10832 10829
10958 10957 10958 10958 10958 10959 10959 10959 10959 10959 10959 10959 10959 10959 10959 10959 10959 10958 10957 10957 10956 10955 10954 10953 10952 10951 10950 10949 10947 10946 10944 10943 10941 10939 10937 10936 10934 10932 10929 10927 10925 10923 10921 10919 10917 10915 10912 10910 10908 10906 10904 10902 10900 10897 10894 10890 10887 10884 10882 10880 10878 10876 10874 10872 10870 10868 10866 10864 10861 10859 10856 10853 10850 10847 10845 10843 10841 10839 10837 10835 10833 10830 10828 10825 10821
10954 10954 10954 10954 10955 10955 10955 10955 10955 10955 10955 10956 10955 10956 10955 10955 10955 10954 10953 10953 10952 10951 10950 10949 10948 10947 10946 10945 10944 10942 10941 10939 10938 10936 10934 10932 10930 10927 10925 10923 10920 10918 10916 10914 10912 10909 10907 10905 10903 10901 10899 10897 10895 10893 10890 10886 10883 10879 10877 10875 10873 10871 10869 10867 10865 10863 10860 10858 10856 10853 10850 10847 10845 10843 10841 10839 10836 10834 10832 10829 10827 10824 10821 10818 10815
10949 10950 10950 10950 10951 10951 10951 10951 10951 10951 10951 10951 10952 10952 10952 10952 10951 10950 10950 10949 10948 10947 10946 10945 10944 10943 10942 10941 10940 10939 10937 10936 10934 10932 10930 10928 10926 10923 10920 10918 10916 10914 10912 10909 10907 10904 10902 10900 10897 10895 10893 10891 10890 10888 10884 10881 10878 10875 10873 10871 10868 10867 10865 10862 10860 10857 10854 10852 10850 10847 10845 10842 10840 10838 10836 10834 10831 10828 10826 10823 10820 10817 10814 10811 10807
10945 10946 10946 10947 10946 10946 10946 10947 10947 10947 10947 10947 10947 10948 10947 10947 10947 10946 10945 10944 10943 10943 10942 10941 10940 10938 10937 10937 10936 10935 10934 10932 10930 10928 10926 10923 10921 10918 10916 10913 10911 10909 10906 10904 10901 10899 10896 10894 10892 10889 10887 10885 10884 10881 10877 10875 10873 10870 10868 10866 10864 10862 10860 10857 10854 10851 10848 10846 10844 10842 10840 10837 10835 10833 10830 10828 10825 10822 10819 10816 10813 10809 10805 10802 10798
10941 10942 10943 10943 10943 10942 10942 10942 10942 10942 10942 10942 10942 10943 10943 10943 10942 10942 10941 10940 10939 10939 10938 10937 10935 10934 10933 10932 10932 10931 10929 10928 10926 10924 10921 10918 10915 10913 10911 10908 10906 10903 10901 10898 10895 10893 10891 10889 10887 10884 10882 10879 10877 10875 10872 10870 10867 10865 10863 10861 10859 10856 10854 10852 10850 10847 10844 10841 10839 10837 10835 10833 10830 10827 10824 10822 10818 10815 10811 10807 10804 10800 10795 10791 10789
10936 10937 10939 10939 10939 10939 10939 10938 10938 10938 10937 10937 10937 10938 10938 10938 10938 10938 10937 10936 10935 10935 10934 10932 10931 10930 10929 10928 10927 10926 10925 10923 10921 10919 10916 10913 10911 10908 10906 10903 10900 10898 10895 10892 10889 10888 10886 10884 10882 10879 10877 10875 10872 10869 10867 10865 10863 10860 10858 10855 10853 10851 10849 10847 10845 10843 10840 10837 10835 10833 10830 10827 10824 10821 10818 10814 10810 10806 10802 10799 10794 10790 10786 10782 10780
10931 10933 10934 10934 10934 10934 10934 10934 10934 10934 10933 10933 10933 10933 10933 10934 10934 10933 10932 10931 10931 10930 10929 10928 10927 10925 10924 10923 10922 10921 10919 10918 10916 10914 10911 10908 10906 10903 10901 10898 10895 10893 10890 10887 10884 10882 10881 10879 10877 10874 10872 10869 10867 10864 10862 10860 10857 10855 10853 10850 10848 10846 10843 10841 10840 10838 10835 10832 10829 10826 10824 10820 10817 10813 10810 10806 10801 10797 10793 10789 10785 10781 10777 10774 10771
10926 10928 10929 10929 10929 10929 10929 10930 10929 10929 10930 10929 10929 10929 10929 10928 10928 10927 10926 10926 10926 10925 10924 10923 10922 10920 10919 10918 10917 10915 10914 10912 10910 10908 10907 10905 10902 10899 10896 10892 10889 10887 10885 10882 10880 10878 10876 10874 10871 10869 10866 10864 10861 10859 10857 10855 10852 10850 10847 10845 10843 10840 10838 10835 10833 10831 10829 10826 10822 10819 10816 10813 10809 10805 10801 10797 10792 10788 10784 10780 10776 10773 10770 10767 10764
10920 10922 10922 10922 10923 10923 10924 10924 10924 10925 10925 10925 10925 10925 10925 10924 10923 10922 10920 10920 10920 10919 10918 10917 10916 10915 10914 10913 10912 10910 10909 10907 10905 10903 10902 10901 10897 10893 10890 10886 10883 10882 10880 10878 10876 10873 10871 10869 10866 10863 10861 10859 10857 10854 10852 10849 10847 10844 10841 10839 10837 10835 10832 10829 10826 10824 10821 10818 10814 10811 10807 10803 10800 10796 10791 10787 10783 10779 10775 10771 10768 10765 10762 10759 10756
10914 10915 10915 10915 10916 10917 10917 10917 10918 10919 10920 10920 10920 10920 10920 10919 10918 10916 10915 10914 10914 10913 10912 10912 10911 10910 10909 10908 10907 10906 10904 10902 10900 10898 10898 10896 10893 10888 10883 10878 10876 10875 10874 10873 10871 10869 10866 10864 10862 10859 10856 10854 10851 10848 10846 10843 10841 10838 10835 10833 10831 10828 10825 10821 10818 10815 10813 10809 10806 10802 10798 10794 10790 10786 10781 10777 10774 10770 10767 10763 10760 10757 10754 10750 10746
10907 10907 10908 10908 10909 10910 10911 10911 10912 10913 10914 10915 10915 10915 10914 10914 10912 10911 10910 10909 10909 10908 10907 10907 10907 10905 10905 10904 10902 10901 10899 10897 10895 10893 10892 10890 10888 10885 10877 10870 10869 10869 10868 10867 10866 10864 10862 10859 10856 10854 10851 10848 10845 10842 10840 10837 10834 10831 10828 10826 10824 10821 10818 10814 10811 10807 10804 10800 10796 10792 10789 10784 10780 10776 10772 10768 10765 10762 10759 10755 10752 10749 10745 10741 10737
10900 10900 10901 10902 10903 10905 10905 10905 10906 10907 10909 10910 10910 10909 10908 10908 10906 10904 10904 10903 10903 10902 10902 10902 10901 10901 10900 10899 10898 10896 10893 10891 10890 10888 10887 10884 10884 10882 10870 10862 10863 10864 10862 10862 10861 10858 10856 10853 10850 10848 10845 10842 10839 10836 10833 10830 10827 10825 10821 10818 10816 10813 10810 10806 10802 10798 10794 10791 10787 10782 10779 10775 10771 10767 10764 10760 10757 10753 10751 10747 10744 10741 10737 10734 10730
10895 10895 10896 10897 10898 10900 10899 10899 10900 10902 10905 10905 10904 10903 10902 10901 10900 10898 10898 10897 10896 10896 10896 10896 10895 10894 10894 10893 10892 10890 10888 10886 10884 10883 10882 10879 10879 10876 10863 10854 10857 10859 10856 10856 10855 10852 10850 10847 10844 10842 10839 10836 10834 10831 10828 10824 10821 10818 10815 10810 10807 10804 10801 10797 10793 10789 10785 10781 10777 10773 10769 10766 10763 10759 10755 10752 10749 10746 10743 10740 10737 10733 10730 10726 10722
10889 10889 10891 10892 10893 10894 10893 10893 10894 10897 10899 10899 10898 10896 10895 10894 10893 10892 10891 10890 10890 10890 10889 10889 10888 10887 10887 10886 10885 10884 10882 10880 10878 10877 10876 10873 10872 10870 10861 10851 10851 10852 10851 10850 10849 10846 10843 10840 10838 10836 10833 10831 10828 10825 10822 10819 10815 10812 10808 10803 10800 10796 10792 10788 10784 10780 10777 10773 10769 10765 10762 10759 10758 10753 10748 10744 10741 10738 10735 10732 10728 10725 10721 10717 10713
10883 10884 10886 10886 10888 10889 10887 10886 10888 10891 10892 10892 10891 10889 10886 10886 10886 10886 10885 10884 10883 10883 10882 10881 10881 10880 10879 10878 10877 10877 10875 10874 10872 10869 10868 10867 10864 10863 10859 10851 10847 10845 10844 10844 10844 10841 10837 10834 10832 10829 10827 10824 10821 10818 10816 10812 10808 10805 10801 10796 10791 10787 10783 10779 10776 10772 10768 10765 10761 10758 10755 10753 10751 10747 10741 10737 10733 10729 10726 10722 10717 10714 10711 10707 10702
10877 10879 10880 10881 10882 10883 10882 10881 10882 10885 10885 10885 10883 10880 10879 10879 10878 10878 10878 10877 10877 10877 10875 10874 10873 10872 10872 10871 10870 10870 10869 10867 10865 10862 10860 10859 10856 10855 10852 10848 10843 10839 10837 10837 10836 10834 10830 10827 10824 10822 10819 10817 10814 10811 10808 10803 10800 10797 10793 10787 10782 10778 10774 10770 10766 10764 10760 10757 10754 10751 10747 10745 10742 10738 10733 10729 10725 10722 10717 10712 10707 10703 10699 10695 10691
10871 10873 10874 10875 10876 10877 10875 10875 10876 10878 10878 10877 10874 10873 10871 10871 10870 10870 10870 10869 10869 10869 10868 10867 10865 10864 10864 10863 10862 10862 10861 10860 10858 10855 10852 10851 10849 10847 10844 10841 10837 10833 10830 10828 10826 10824 10821 10819 10816 10813 10811 10808 10805 10803 10799 10794 10791 10788 10784 10779 10773 10769 10765 10761 10758 10756 10753 10749 10746 10743 10740 10736 10733 10729 10725 10720 10715 10712 10707 10701 10696 10692 10687 10684 10680
10865 10866 10866 10868 10870 10869 10870 10870 10870 10871 10870 10868 10867 10865 10864 10862 10862 10861 10860 10860 10860 10860 10859 10858 10857 10857 10856 10855 10854 10854 10853 10853 10851 10848 10845 10844 10843 10840 10836 10833 10830 10826 10822 10820 10817 10815 10813 10810 10808 10805 10803 10800 10796 10793 10789 10785 10782 10779 10775 10770 10766 10762 10758 10754 10751 10748 10745 10741 10737 10734 10730 10726 10722 10720 10715 10710 10706 10702 10696 10691 10685 10680 10675 10672 10668
10857 10857 10858 10861 10862 10862 10864 10864 10864 10863 10862 10861 10860 10858 10856 10855 10854 10852 10852 10852 10851 10850 10850 10849 10849 10848 10848 10846 10846 10845 10845 10845 10844 10841 10839 10837 10836 10833 10829 10827 10823 10819 10816 10813 10810 10807 10805 10802 10799 10797 10794 10791 10787 10783 10779 10775 10773 10770 10766 10762 10758 10754 10750 10746 10743 10740 10736 10733 10730 10725 10720 10715 10712 10709 10705 10700 10696 10692 10687 10681 10676 10670 10664 10660 10656
10848 10848 10850 10853 10854 10855 10856 10856 10856 10856 10855 10854 10853 10851 10849 10847 10846 10845 10845 10845 10844 10842 10842 10841 10840 10840 10839 10838 10837 10836 10835 10836 10835 10834 10832 10831 10829 10826 10823 10820 10817 10813 10810 10807 10804 10801 10797 10794 10791 10788 10785 10782 10778 10773 10769 10766 10764 10761 10758 10755 10750 10746 10742 10737 10734 10731 10727 10725 10722 10716 10710 10706 10702 10700 10696 10690 10686 10681 10677 10671 10666 10661 10655 10649 10645
10838 10840 10843 10845 10846 10846 10847 10847 10847 10848 10847 10846 10845 10844 10842 10840 10840 10841 10841 10839 10837 10835 10835 10834 10833 10832 10831 10830 10829 10828 10827 10827 10826 10825 10825 10823 10821 10818 10815 10813 10810 10806 10802 10799 10796 10793 10790 10786 10783 10780 10777 10772 10768 10763 10760 10758 10756 10752 10749 10747 10742 10738 10734 10729 10725 10722 10719 10716 10712 10707 10701 10696 10692 10688 10685 10680 10675 10671 10666 10661 10656 10651 10645 10640 10635
10830 10832 10835 10838 10838 10837 10838 10838 10838 10839 10839 10838 10838 10836 10835 10835 10836 10836 10835 10832 10830 10829 10829 10827 10826 10825 10824 10823 10821 10820 10819 10819 10818 10818 10817 10816 10813 10810 10807 10805 10802 10798 10794 10791 10788 10785 10781 10778 10775 10772 10768 10764 10759 10755 10752 10750 10747 10743 10741 10738 10733 10729 10726 10720 10716 10714 10711 10706 10702 10699 10693 10687 10682 10678 10674 10669 10665 10660 10655 10650 10645 10640 10635 10630 10626
10823 10826 10828 10829 10829 10829 10830 10829 10829 10830 10830 10830 10830 10829 10829 10830 10831 10830 10828 10825 10823 10822 10822 10821 10819 10818 10817 10815 10813 10812 10811 10811 10811 10811 10810 10808 10805 10801 10798 10796 10793 10790 10786 10783 10780 10777 10773 10770 10768 10765 10761 10756 10751 10747 10744 10741 10739 10735 10732 10729 10724 10720 10717 10711 10707 10705 10701 10695 10692 10689 10685 10678 10672 10669 10664 10659 10654 10649 10645 10640 10635 10630 10626 10621 10617
10817 10818 10821 10822 10822 10822 10822 10822 10821 10821 10821 10822 10823 10823 10823 10824 10824 10823 10821 10818 10816 10816 10815 10814 10812 10811 10810 10808 10806 10804 10803 10803 10803 10803 10801 10799 10796 10793 10790 10787 10784 10781 10778 10774 10771 10768 10766 10763 10761 10757 10753 10747 10743 10740 10735 10732 10730 10727 10724 10720 10715 10711 10707 10702 10699 10696 10690 10684 10680 10677 10674 10668 10663 10658 10654 10649 10644 10639 10634 10630 10625 10621 10617 10613 10608
10809 10811 10813 10815 10815 10816 10815 10814 10814 10813 10814 10816 10816 10815 10815 10816 10816 10815 10813 10811 10809 10809 10809 10807 10805 10804 10803 10801 10799 10797 10796 10795 10795 10795 10793 10790 10788 10785 10782 10778 10775 10772 10769 10766 10763 10760 10757 10755 10752 10749 10744 10739 10735 10732 10727 10724 10722 10719 10716 10711 10706 10702 10697 10692 10690 10686 10680 10674 10669 10665 10662 10658 10653 10649 10644 10639 10635 10630 10625 10621 10617 10612 10608 10604 10599
10802 10804 10806 10807 10808 10809 10808 10807 10807 10807 10808 10809 10808 10808 10808 10809 10808 10806 10805 10804 10802 10802 10802 10800 10799 10797 10796 10793 10791 10789 10788 10788 10787 10786 10785 10782 10779 10776 10773 10770 10767 10764 10761 10758 10755 10752 10749 10747 10744 10740 10735 10731 10727 10723 10719 10716 10714 10710 10706 10702 10697 10693 10688 10683 10680 10676 10670 10664 10659 10655 10651 10647 10643 10639 10634 10629 10625 10621 10617 10612 10607 10603 10599 10594 10590
10795 10797 10799 10800 10801 10802 10801 10800 10800 10801 10801 10802 10801 10800 10800 10800 10798 10797 10796 10796 10795 10794 10794 10793 10792 10790 10788 10786 10784 10782 10781 10780 10779 10778 10776 10774 10771 10769 10765 10762 10759 10756 10753 10750 10747 10743 10740 10738 10736 10731 10726 10722 10719 10716 10711 10708 10705 10701 10697 10693 10688 10684 10680 10675 10670 10665 10659 10654 10649 10645 10641 10637 10632 10629 10625 10620 10616 10612 10607 10602 10598 10593 10589 10584 10579
10788 10789 10791 10792 10793 10793 10793 10794 10795 10795 10795 10795 10793 10791 10790 10790 10789 10788 10788 10788 10788 10787 10787 10785 10784 10782 10780 10778 10777 10775 10773 10772 10771 10769 10767 10765 10763 10760 10758 10755 10751 10748 10744 10741 10738 10735 10731 10729 10727 10723 10717 10713 10711 10708 10703 10698 10694 10691 10687 10682 10678 10674 10670 10665 10661 10655 10649 10644 10639 10635 10631 10627 10623 10619 10615 10610 10606 10602 10597 10593 10588 10583 10578 10573 10568
10780 10781 10782 10783 10785 10786 10787 10788 10788 10788 10788 10787 10785 10783 10781 10780 10780 10781 10781 10780 10780 10779 10778 10777 10776 10774 10773 10771 10769 10767 10766 10764 10762 10761 10758 10756 10754 10752 10749 10746 10742 10738 10735 10732 10729 10726 10722 10720 10719 10715 10709 10704 10701 10698 10694 10688 10684 10680 10676 10672 10668 10663 10659 10654 10650 10645 10640 10635 10631 10627 10623 10619 10614 10610 10606 10601 10596 10592 10587 10583 10578 10573 10568 10563 10558
10772 10772 10774 10776 10777 10778 10779 10780 10780 10779 10779 10777 10776 10774 10773 10772 10773 10773 10773 10773 10772 10771 10770 10769 10768 10767 10765 10764 10762 10760 10758 10756 10754 10752 10750 10747 10745 10743 10740 10736 10732 10729 10725 10723 10720 10716 10713 10711 10709 10707 10702 10696 10691 10688 10684 10679 10674 10671 10667 10662 10658 10653 10649 10644 10640 10636 10631 10627 10622 10618 10614 10610 10605 10600 10596 10591 10586 10581 10577 10572 10567 10562 10557 10552 10547
10763 10764 10766 10768 10770 10769 10769 10770 10770 10771 10770 10768 10767 10766 10765 10765 10765 10765 10765 10764 10763 10763 10762 10761 10760 10759 10758 10756 10754 10752 10750 10748 10746 10744 10741 10738 10736 10733 10730 10727 10723 10719 10716 10714 10711 10707 10704 10701 10699 10697 10693 10688 10683 10679 10675 10671 10666 10662 10657 10653 10648 10644 10639 10635 10630 10626 10622 10618 10613 10608 10604 10600 10595 10590 10585 10581 10576 10571 10566 10561 10556 10551 10546 10541 10536
10755 10756 10757 10759 10760 10760 10760 10761 10762 10762 10762 10760 10759 10758 10756 10755 10755 10756 10756 10756 10755 10755 10754 10753 10752 10751 10749 10747 10745 10743 10741 10739 10737 10735 10731 10729 10727 10724 10720 10717 10713 10710 10707 10705 10702 10698 10695 10692 10689 10687 10684 10679 10674 10671 10667 10663 10658 10653 10648 10644 10639 10634 10630 10625 10621 10616 10612 10608 10604 10599 10594 10589 10584 10579 10575 10570 10565 10561 10555 10550 10546 10541 10536 10532 10527
10747 10748 10749 10750 10751 10751 10752 10753 10753 10753 10753 10751 10750 10748 10746 10745 10746 10748 10748 10748 10747 10747 10746 10744 10743 10741 10740 10738 10736 10734 10731 10729 10727 10724 10721 10718 10716 10714 10711 10707 10704 10700 10697 10695 10692 10688 10685 10681 10678 10675 10673 10670 10666 10662 10658 10653 10648 10643 10639 10634 10629 10624 10620 10615 10611 10606 10602 10598 10594 10589 10585 10580 10574 10570 10565 10559 10555 10550 10545 10540 10535 10530 10526 10522 10518
10739 10740 10741 10741 10742 10743 10744 10744 10744 10744 10743 10741 10740 10738 10737 10736 10738 10739 10740 10739 10739 10738 10737 10735 10734 10732 10731 10729 10727 10724 10722 10719 10716 10714 10711 10707 10705 10703 10700 10697 10694 10690 10686 10683 10680 10677 10674 10670 10667 10664 10661 10658 10655 10651 10647 10643 10638 10633 10628 10623 10619 10614 10610 10606 10601 10597 10592 10588 10584 10579 10575 10570 10565 10560 10555 10550 10545 10540 10535 10530 10526 10522 10516 10512 10508